User: anonymous   Login
Location: Kopernik Observatory
(42.0014°N, 76.0372°W)
Time: 21:36:17
(UTC-04:00)
Language:

CENTAUR R/B - Orbit

View from above orbital plane
View from above orbital plane
View from above satellite
View from above satellite

Ground track
Ground track

The orbit data is extracted from the following two-line orbital elements,

1 26906U 01040B   15111.05873669 0.00000060  00000-0  81574-4 0    09
2 26906  63.4635 192.4908 0282000 344.7936  15.2064 13.43952108    07
Epoch (UTC): 21 April 2015 01:24:34
Eccentricity: 0.0282000
inclination: 63.4635°
perigee height: 884 km
apogee height: 1305 km
right ascension of ascending node: 192.4908°
argument of perigee: 344.7936°
revolutions per day: 13.43952108
mean anomaly at epoch: 15.2064°
orbit number at epoch: 0

The dashed part of the orbit path shows where the satellite is in the earth's shadow,  

DLR